Location: Mogi das Cruzes
(23.5170°S, 46.1830°W)
Time: 21:33:19
(UTC-03:00)

BlueWalker 3 - Visible Passes

Search period start: 20 June 2024 00:00
Search period end: 30 June 2024 00:00
Orbit: 480 x 494 km, 53.2° (Epoch: 20 June)

Date Brightness Start Highest point End Pass type
(mag) Time Alt. Az. Time Alt. Az. Time Alt. Az.
23 Jun 1.8 06:18:35 10° NW 06:22:21 67° SW 06:26:09 10° SSE visible
24 Jun 1.8 05:52:51 10° NW 05:56:38 75° SW 06:00:27 10° SE visible
25 Jun 1.7 05:27:37 13° NW 05:30:54 83° SW 05:34:44 10° SE visible
26 Jun 2.0 05:05:35 70° SE 05:05:35 70° SE 05:09:00 10° SE visible
27 Jun 4.5 04:42:39 14° SE 04:42:39 14° SE 04:43:15 10° SE visible
